Notices

What's New in latest Release from April 7th, 2021:

- Updated Glossary, including Speed of Maximum Gust, and Total Hourly Precipitation

- Updated national and regional climate services offices contacts and prices information

- Addition of station inventory lists for 1981-2010, 1971-2000, and 1961-1990 Normals.

If you haven't already, please take our survey and provide feedback about our website: https://eccc.sondage-survey.ca/f/LanguageSelection.aspx?s=442ca660-fcf1-47c0-95a9-59707d6fd709

Hourly Data Report for November 11, 2019

SAINT JOHN A
NEW BRUNSWICK
Current Station Operator: NAVCAN

45°18'58.000" N
65°53'24.000" W
108.80 m
8104901
71609
YSJ

Download Data

Hourly Data (November 2019)
Hourly Data Report for November 11, 2019
TIME
LST
Temp Definition
°C
Dew Point Definition
°C
Rel Hum Definition
%
Precip. Amount Definition
mm

Wind Dir Definition
10's deg

Wind Spd Definition
km/h
Visibility Definition
km
Stn Press Definition
kPa
Hmdx Definition


Wind Chill Definition


Weather Definition


00:00 5.7 -0.5 64   23 8 24.1 100.04     LegendNANA
01:00 4.8 -0.6 68   23 11 24.1 100.07     LegendNANA
02:00 5.0 -0.4 68   21 7 24.1 100.13     Cloudy
03:00 3.7 0.8 81   19 5 24.1 100.11     LegendNANA
04:00 3.4 0.8 83   19 3 24.1 100.16     LegendNANA
05:00 1.8 0.7 92   36 2 24.1 100.18     Mostly Cloudy
06:00 0.3 -0.4 95   20 3 24.1 100.27     LegendNANA
07:00 0.0 -0.3 98   35 8 24.1 100.35   -3 LegendNANA
08:00 3.3 -1.6 70   33 17 24.1 100.50     Cloudy
09:00 3.1 -2.1 68   35 14 24.1 100.60     LegendNANA
10:00 3.4 -1.1 73   34 28 24.1 100.68     LegendNANA
11:00 2.3 -1.9 74   36 28 24.1 100.76     Mostly Cloudy
12:00 2.1 -4.5 61   34 22 24.1 100.81     LegendNANA
13:00 0.9 -4.3 68   35 18 24.1 100.87     LegendNANA
14:00 0.5 -4.7 68   36 19 24.1 100.89     Cloudy
15:00 0.0 -6.0 64   1 17 24.1 100.95   -5 LegendNANA
16:00 -0.4 -6.4 64   36 17 24.1 100.96   -5 LegendNANA
17:00 -0.8 -6.8 64   36 14 24.1 101.04   -5 Cloudy
18:00 -0.9 -6.8 65   1 10 24.1 101.09   -4 LegendNANA
19:00 -1.0 -7.5 62   1 19 24.1 101.09   -6 LegendNANA
20:00 -1.0 -7.3 63   2 19 24.1 101.08   -6 Cloudy
21:00 -2.1 -5.4 78   3 17 6.4 101.11   -7 Snow
22:00 -2.8 -4.0 92   3 21 3.2 101.01   -9 Snow
23:00 -2.7 -3.7 93   4 19 1.6 100.87   -8 Snow

Notes on Data Quality.

Legend

  • E = Estimated
  • M = Missing
  • NA = Not Available*
  • [empty] = Indicates an unobserved value
Date modified: